Stations météo

réclame
Mon MeteoGroup
Gaddede A, Suède (2219): Température de l'air & dewpoint: 19.02.2018 06:00:00 - 25.02.2018 06:00:00 (CET)Gaddede A, Suède (2219): Vitesse du vent & gusts: 19.02.2018 06:00:00 - 25.02.2018 06:00:00 (CET)Gaddede A, Suède (2219): Direction du vent: 19.02.2018 06:00:00 - 25.02.2018 06:00:00 (CET)Gaddede A, Suède (2219): reduced air pressure: 19.02.2018 06:00:00 - 25.02.2018 06:00:00 (CET)Gaddede A, Suède (2219): visibility: 19.02.2018 06:00:00 - 25.02.2018 06:00:00 (CET)Gaddede A, Suède (2219): Quantités de précipitations: 19.02.2018 06:00:00 - 25.02.2018 06:00:00 (CET)
Date & Time tt [°C] td [°C] ff [km/h] ff [knt] fx [km/h] fx [knt] dd ppp [hPa] vv [km] rr [mm]
25.02.2018 06:00:00 -17,1 -19,2 19 10 31 17 E 1045,1 14 0,0
25.02.2018 05:00:00 -17,4 -19,4 14 8 36 20 ESE 1044,9 7 0,0
25.02.2018 04:00:00 -17,1 -19,4 18 10 39 21 ESE 1044,4 10 0,0
25.02.2018 03:00:00 -16,5 -18,6 21 12 41 22 ESE 1044,2 10 0,0
25.02.2018 02:00:00 -15,6 -17,8 21 11 34 19 E 1043,7 6 0,0
25.02.2018 01:00:00 -14,5 -17,0 14 8 34 18 ESE 1043,1 25 0,0
25.02.2018 00:00:00 -14,2 -16,2 11 6 36 20 ESE 1042,8 24 0,0
24.02.2018 23:00:00 -14,3 -16,1 21 11 42 23 E 1042,8 4,5 0,0
24.02.2018 22:00:00 -14,0 -16,0 19 10 38 20 ESE 1042,4 9 0,0
24.02.2018 21:00:00 -13,5 -15,3 19 10 48 26 ESE 1041,8 2,7 0,0
24.02.2018 20:00:00 -13,1 -14,9 16 9 36 19 ESE 1041,3 2,0 -
24.02.2018 19:00:00 -12,8 -14,9 17 9 36 19 E 1040,7 1,9 -
24.02.2018 18:00:00 -12,6 -14,7 16 8 35 19 E 1040,4 2,0 -
24.02.2018 17:00:00 -12,4 -14,3 14 8 34 18 E 1040,0 2,1 -
24.02.2018 16:00:00 -12,6 -14,5 16 8 29 16 E 1039,7 1,3 -
24.02.2018 15:00:00 -12,7 -14,6 10 5 30 16 E 1039,4 1,6 -
24.02.2018 14:00:00 -12,7 -14,7 14 8 26 14 E 1039,0 1,3 -
24.02.2018 13:00:00 -12,6 -14,6 11 6 27 15 E 1038,7 1,4 -
24.02.2018 12:00:00 -12,7 -15,0 15 8 29 16 E 1038,4 1,5 -
24.02.2018 11:00:00 -12,7 -14,8 16 8 27 15 ESE 1038,1 1,3 -
24.02.2018 10:00:00 -12,7 -14,7 10 5 21 11 E 1037,7 1,4 -
24.02.2018 09:00:00 -12,6 -14,9 11 6 23 12 ESE 1036,9 1,7 -
24.02.2018 08:00:00 -12,5 -15,1 12 7 25 13 ESE 1036,8 3,7 -
24.02.2018 07:00:00 -11,9 -14,1 4 2 20 11 SSE 1036,4 2,5 -
24.02.2018 06:00:00 -11,6 -14,1 11 6 23 12 E 1035,8 4,7 -
24.02.2018 05:00:00 -11,1 -13,7 9 5 21 11 E 1035,6 7 0,0
24.02.2018 04:00:00 -11,2 -13,8 10 6 22 12 E 1035,3 8 0,0
24.02.2018 03:00:00 -11,1 -13,9 12 7 29 15 E 1035,4 16 0,0
24.02.2018 02:00:00 -11,4 -14,2 15 8 27 14 E 1035,4 27 0,0
24.02.2018 01:00:00 -11,7 -14,0 16 8 29 16 E 1035,5 4,9 -
24.02.2018 00:00:00 -11,6 -13,9 15 8 31 17 E 1035,5 3,9 -
23.02.2018 23:00:00 -11,4 -13,9 16 9 31 17 E 1035,1 7 0,0
23.02.2018 22:00:00 -11,4 -13,7 16 9 36 19 E 1034,8 2,5 -
23.02.2018 21:00:00 -11,4 -13,6 18 10 36 19 E 1034,4 2,5 -
23.02.2018 20:00:00 -11,4 -13,4 19 10 35 19 E 1033,8 3,0 -
23.02.2018 19:00:00 -11,4 -13,6 20 11 36 20 E 1033,6 2,6 -
23.02.2018 18:00:00 -11,4 -13,3 20 11 37 20 E 1033,5 1,3 -
23.02.2018 17:00:00 -11,0 -13,2 18 10 48 26 E 1032,9 4,3 -
23.02.2018 16:00:00 -10,8 -12,7 18 10 35 19 E 1032,6 1,2 0,0
23.02.2018 15:00:00 -10,4 -12,6 19 10 40 21 ESE 1032,2 3,1 -
23.02.2018 14:00:00 -10,1 -12,6 19 10 36 19 E 1032,0 5 0,0
23.02.2018 13:00:00 -10,1 -12,4 12 6 28 15 ESE 1031,8 2,9 -
23.02.2018 12:00:00 -10,3 -12,2 12 6 29 15 E 1031,7 2,0 -
23.02.2018 11:00:00 -10,7 -12,4 13 7 31 17 E 1031,5 1,6 -
23.02.2018 10:00:00 -10,9 -12,4 15 8 30 16 E 1031,1 1,7 0,0
23.02.2018 09:00:00 -11,1 -12,4 11 6 24 13 ESE 1030,5 1,5 0,0
23.02.2018 08:00:00 -10,9 -12,5 9 5 29 16 ESE 1030,1 9 0,0
23.02.2018 07:00:00 -10,8 -12,5 13 7 26 14 ESE 1029,6 18 0,0
23.02.2018 06:00:00 -10,7 -12,2 9 5 27 14 ESE 1029,2 14 0,0
23.02.2018 05:00:00 -10,5 -11,7 9 5 22 12 SE 1028,9 20 0,0
23.02.2018 04:00:00 -10,2 -11,2 10 5 21 11 ESE 1028,6 12 0,0
23.02.2018 03:00:00 -10,0 -10,9 10 6 19 11 ESE 1028,3 13 0,0
23.02.2018 02:00:00 -9,8 -10,7 13 7 22 12 E 1027,8 6 0,0
23.02.2018 01:00:00 -9,4 -10,3 10 6 19 10 E 1027,3 3,4 0,0
23.02.2018 00:00:00 -8,8 -9,9 9 5 16 9 E 1026,9 7 -
22.02.2018 23:00:00 -7,3 -8,4 7 4 14 8 E 1026,5 6 0,0
22.02.2018 22:00:00 -7,3 -8,2 2 1 10 5 E 1026,5 14 -
22.02.2018 21:00:00 -6,6 -7,5 3 2 13 7 SE 1026,2 48 -
22.02.2018 20:00:00 -5,3 -6,1 6 3 9 5 N 1025,8 50 -
22.02.2018 19:00:00 -6,3 -7,0 6 4 12 6 WNW 1026,0 13 -
22.02.2018 18:00:00 -8,4 -9,6 3 1 6 3 E 1026,4 44 -
22.02.2018 17:00:00 -8,9 -10,2 2 1 5 3 ENE 1026,4 43 -
22.02.2018 16:00:00 -8,4 -10,3 2 1 5 3 W 1026,4 37 0,0
22.02.2018 15:00:00 -8,3 -10,4 3 2 8 4 W 1026,5 1,9 0,0
22.02.2018 14:00:00 -8,2 -10,9 2 1 6 3 NE 1026,6 6 0,0
22.02.2018 13:00:00 -8,5 -11,5 1 0 8 4 WNW 1026,8 1,7 0,0
22.02.2018 12:00:00 -8,8 -11,8 2 1 7 4 WSW 1026,8 7 0,0
22.02.2018 11:00:00 -9,8 -12,4 2 1 5 3 W 1027,2 16 0,0
22.02.2018 10:00:00 -10,0 -12,5 1 1 4 2 W 1027,4 11 0,0
22.02.2018 09:00:00 -11,3 -13,3 3 2 5 3 WSW 1027,5 8 0,0
22.02.2018 08:00:00 -12,1 -13,8 1 0 6 3 NW 1027,4 18 0,0
22.02.2018 07:00:00 -13,1 -14,5 2 1 4 2 E 1027,5 50 -
22.02.2018 06:00:00 -12,9 -14,3 3 1 7 4 SW 1027,4 37 -
22.02.2018 05:00:00 -12,5 -14,1 2 1 6 4 WNW 1027,4 33 -
22.02.2018 04:00:00 -12,0 -13,3 2 1 6 4 SE 1027,4 40 -
22.02.2018 03:00:00 -13,2 -14,6 1 1 6 3 WSW 1027,5 39 0,0
22.02.2018 02:00:00 -13,0 -14,6 1 1 7 4 WNW 1027,8 26 0,0
22.02.2018 01:00:00 -14,0 -15,6 4 2 5 3 E 1027,8 9 0,0
22.02.2018 00:00:00 -15,0 -16,5 3 2 6 3 ENE 1027,9 50 -
21.02.2018 23:00:00 -13,7 -15,4 1 1 4 2 E 1027,7 48 -
21.02.2018 22:00:00 -13,0 -14,4 3 2 9 5 SW 1027,4 40 -
21.02.2018 21:00:00 -12,5 -14,5 3 1 9 5 NNE 1027,1 50 0,0
21.02.2018 20:00:00 -12,5 -14,4 1 1 7 4 SW 1026,8 37 -
21.02.2018 19:00:00 -13,3 -14,7 1 1 6 4 SSE 1026,5 22 0,0
21.02.2018 18:00:00 -14,7 -16,2 2 1 7 4 ESE 1026,4 4,4 0,0
21.02.2018 17:00:00 -16,0 -17,5 3 2 11 6 ENE 1026,0 9 0,0
21.02.2018 16:00:00 -12,1 -14,2 4 2 9 5 ESE 1025,4 7 0,0
21.02.2018 15:00:00 -11,3 -13,6 4 2 12 6 S 1025,4 9 0,0
21.02.2018 14:00:00 -11,0 -13,5 5 3 12 7 SSE 1025,3 7 0,0
21.02.2018 13:00:00 -10,7 -13,2 8 4 17 9 SSE 1025,3 8 0,0
21.02.2018 12:00:00 -11,0 -13,6 9 5 20 11 ESE 1025,4 9 0,0
21.02.2018 11:00:00 -11,6 -13,9 10 5 18 10 ESE 1025,5 5 0,0
21.02.2018 10:00:00 -12,0 -14,3 11 6 18 10 ESE 1025,5 4,9 0,0
21.02.2018 09:00:00 -12,1 -14,4 7 4 19 10 ESE 1025,5 6 0,0
21.02.2018 08:00:00 -12,6 -15,0 10 6 23 13 E 1025,3 11 0,0
21.02.2018 07:00:00 -13,3 -15,1 12 7 24 13 E 1025,5 9 0,0
21.02.2018 06:00:00 -13,6 -15,4 9 5 19 11 E 1025,7 4,6 0,0
21.02.2018 05:00:00 -13,3 -15,3 8 5 18 10 E 1025,6 14 0,0
21.02.2018 04:00:00 -13,4 -15,2 8 4 17 9 E 1026,1 20 0,0
21.02.2018 03:00:00 -13,7 -15,4 6 3 19 10 ENE 1026,5 9 0,0
21.02.2018 02:00:00 -12,8 -14,4 9 5 22 12 E 1026,7 1,8 0,0
21.02.2018 01:00:00 -12,6 -14,3 10 6 22 12 E 1026,9 5 0,0
21.02.2018 00:00:00 -12,8 -14,6 8 4 20 11 E 1027,0 8 0,0
20.02.2018 23:00:00 -12,5 -14,5 9 5 20 11 E 1027,1 19 0,0
20.02.2018 22:00:00 -11,7 -13,9 9 5 16 9 E 1027,2 7 0,0
20.02.2018 21:00:00 -11,8 -13,8 9 5 19 10 E 1027,2 8 0,0
20.02.2018 20:00:00 -11,3 -13,3 10 5 18 10 E 1027,2 4,6 0,0
20.02.2018 19:00:00 -11,2 -13,4 10 6 24 13 E 1027,1 10 0,0
20.02.2018 18:00:00 -10,9 -12,9 13 7 25 13 E 1026,8 8 0,0
20.02.2018 17:00:00 -10,7 -12,9 12 6 25 14 E 1026,7 6 0,0
20.02.2018 16:00:00 -10,1 -12,1 10 6 21 12 E 1026,8 1,4 0,0
20.02.2018 15:00:00 -10,2 -12,2 10 5 22 12 E 1026,9 3,0 0,0
20.02.2018 14:00:00 -10,3 -12,9 12 6 29 16 E 1027,0 22 0,0
20.02.2018 13:00:00 -10,1 -12,7 13 7 - - ESE 1027,3 10 0,0
20.02.2018 12:00:00 -10,6 -13,1 13 7 25 14 ESE 1027,5 5 0,0
20.02.2018 11:00:00 -10,7 -13,0 12 7 27 14 E 1027,5 5 0,0
20.02.2018 10:00:00 -10,8 -13,1 16 9 27 15 E 1027,4 10 0,0
20.02.2018 09:00:00 -11,2 -13,4 14 7 24 13 E 1027,4 11 0,0
20.02.2018 08:00:00 -11,5 -13,7 13 7 25 13 E 1027,3 9 0,0
20.02.2018 07:00:00 -11,3 -13,3 14 8 26 14 E 1027,5 9 0,0
20.02.2018 06:00:00 -11,5 -12,9 14 8 27 15 E 1027,8 4,3 0,0
20.02.2018 05:00:00 -11,0 -12,7 13 7 26 14 E 1027,9 7 0,0
20.02.2018 04:00:00 -10,7 -12,4 11 6 24 13 E 1028,1 3,7 0,0
20.02.2018 03:00:00 -10,6 -12,5 11 6 23 12 E 1028,3 11 0,0
20.02.2018 02:00:00 -9,8 -12,0 12 6 29 16 ESE 1028,7 9 0,0
20.02.2018 01:00:00 -9,7 -12,1 11 6 26 14 E 1028,8 33 0,0
20.02.2018 00:00:00 -9,4 -11,2 10 5 23 13 E 1028,9 34 0,0
19.02.2018 23:00:00 -8,8 -10,6 10 5 24 13 E 1029,1 50 0,0
19.02.2018 22:00:00 -8,3 -9,8 11 6 18 10 E 1029,0 28 0,0
19.02.2018 21:00:00 -8,1 -9,4 11 6 20 11 E 1028,9 16 0,0
19.02.2018 20:00:00 -8,1 -9,6 9 5 19 10 E 1029,3 34 0,0
19.02.2018 19:00:00 -7,3 -8,9 8 5 16 9 E 1029,2 44 0,0
19.02.2018 18:00:00 -7,1 -8,6 13 7 23 12 ESE 1029,1 10 0,0
19.02.2018 17:00:00 -6,9 -8,6 11 6 24 13 E 1028,8 12 0,0
19.02.2018 16:00:00 -6,7 -8,2 9 5 23 12 ESE 1028,7 9 0,0
19.02.2018 15:00:00 -6,3 -8,0 10 5 21 12 E 1028,6 8 0,0
19.02.2018 14:00:00 -6,5 -8,2 12 6 23 13 E 1028,3 11 0,0
19.02.2018 13:00:00 -6,6 -8,1 13 7 24 13 ESE 1028,1 6 0,0
19.02.2018 12:00:00 -6,7 -7,8 13 7 22 12 E 1028,0 10 0,0
19.02.2018 11:00:00 -6,8 -7,6 11 6 24 13 E 1027,8 10 0,0
19.02.2018 10:00:00 -6,9 -7,7 11 6 21 11 ESE 1027,4 7 0,0
19.02.2018 09:00:00 -7,0 -7,8 11 6 18 10 E 1027,0 16 0,0
19.02.2018 08:00:00 -6,9 -7,7 11 6 21 11 E 1026,4 17 0,0
19.02.2018 07:00:00 -6,8 -7,5 11 6 21 12 E 1026,0 20 0,0
19.02.2018 06:00:00 -6,7 -7,4 13 7 24 13 E 1025,4 15 -

tt = Température de l'air
td = dewpoint
ff = Vitesse du vent
fx = gusts
dd = Direction du vent
ppp = reduced air pressure
vv = visibility
rr = Quantités de précipitations

stations d'obs. à proximité